User: anonymous   Login
Location: Unspecified
(0.0000°N, 0.0000°E)
Time: 19:59:02
(UTC+00:00)
Language:

CUBEBUG 2 - Orbit

View from above orbital plane
View from above orbital plane
View from above satellite
View from above satellite

Ground track
Ground track

The orbit data is extracted from the following two-line orbital elements,

1 39440U 13066AA  17268.95164506 +.00000293 +00000-0 +48140-4 0  9991
2 39440 097.6224 294.6571 0079990 334.4217 025.3044 14.75514716205752
Epoch (UTC): 25 September 2017 22:50:22
Eccentricity: 0.0079990
inclination: 97.6224°
perigee height: 587 km
apogee height: 699 km
right ascension of ascending node: 294.6571°
argument of perigee: 334.4217°
revolutions per day: 14.75514716
mean anomaly at epoch: 25.3044°
orbit number at epoch: 20575

The dashed part of the orbit path shows where the satellite is in the earth's shadow,  

DLR